FW7106 Weather Reports


time (UTC)temp
F
wind
direction
speed
knots
gust
knots
rain 1hr
in
rain 24hr
in
rain mn
in
humidity
%
barometer
mb
20260506143618 78 111 0.9 0.9 0.00 0.00 0.00 93 1009.3
20260506143115 77 128 0.0 0.9 0.00 0.00 0.00 93 1009.4
20260506142614 78 119 0.0 0.0 0.00 0.00 0.00 93 1009.1
20260506142112 78 79 0.0 0.9 0.00 0.00 0.00 93 1009.2
20260506141608 78 131 0.0 0.9 0.00 0.00 0.00 93 1009.1
20260506141107 78 92 0.0 0.0 0.00 0.00 0.00 93 1009.0
20260506140604 77 157 0.9 0.9 0.00 0.00 0.00 93 1009.0
20260506135558 77 89 1.7 1.7 0.00 0.00 0.00 93 1008.7
20260506135054 77 71 0.0 0.0 0.00 0.00 0.00 94 1008.6
20260506134551 77 123 1.7 1.7 0.00 0.00 0.00 94 1008.6
20260506134046 76 163 0.0 0.0 0.00 0.00 0.00 94 1008.5
20260506133544 77 134 0.0 0.9 0.00 0.00 0.00 94 1009.0
20260506133041 77 112 0.9 1.7 0.00 0.00 0.00 94 1008.7
20260506132538 77 146 0.9 0.9 0.00 0.00 0.00 94 1008.8
20260506132035 76 151 0.0 0.0 0.00 0.00 0.00 95 1008.8
20260506131532 76 162 0.9 0.9 0.00 0.00 0.00 95 1008.7
20260506131029 76 163 0.0 0.0 0.00 0.00 0.00 95 1008.6
20260506130526 76 137 0.0 0.9 0.00 0.00 0.00 95 1009.0
20260506130023 76 138 0.9 0.9 0.00 0.00 0.00 95 1008.8
20260506125521 76 133 0.0 0.0 0.00 0.00 0.00 95 1008.8
20260506125019 75 134 0.0 0.9 0.00 0.00 0.00 95 1008.7
20260506124516 75 134 0.0 0.0 0.00 0.00 0.00 96 1008.9
20260506124014 75 134 0.0 0.0 0.00 0.00 0.00 95 1008.6
20260506123512 75 134 0.0 0.0 0.00 0.00 0.00 95 1008.5
20260506123010 75 134 0.0 0.0 0.00 0.00 0.00 95 1008.5
20260506122506 75 134 0.0 0.0 0.00 0.00 0.00 95 1008.8
20260506122004 75 134 0.0 0.0 0.00 0.00 0.00 95 1008.7
20260506121501 75 134 0.0 0.0 0.00 0.00 0.00 95 1008.7
20260506120958 75 134 0.0 0.0 0.00 0.00 0.00 95 1008.5
20260506120455 75 134 0.0 0.0 0.00 0.00 0.00 95 1008.6
20260506115953 75 134 0.0 0.0 0.00 0.00 0.00 95 1008.7
20260506115450 75 134 0.0 0.0 0.00 0.00 0.00 95 1008.7
20260506114949 75 134 0.0 0.0 0.00 0.00 0.00 95 1008.4
20260506114446 75 184 0.0 0.0 0.00 0.00 0.00 95 1008.3
20260506113944 75 184 0.0 0.0 0.00 0.00 0.00 95 1008.5
20260506113442 75 183 0.0 0.0 0.00 0.00 0.00 95 1008.3
20260506112938 75 208 0.0 0.0 0.00 0.00 0.00 95 1008.1
20260506112436 75 208 0.0 0.0 0.00 0.00 0.00 95 1008.2
20260506111933 75 209 0.0 0.0 0.00 0.00 0.00 94 1008.1
20260506111431 75 208 0.9 0.9 0.00 0.00 0.00 95 1008.1
20260506110928 75 209 0.0 0.0 0.00 0.00 0.00 94 1008.1
20260506110426 75 209 0.0 0.0 0.00 0.00 0.00 94 1008.0
20260506105922 75 210 0.9 0.9 0.00 0.00 0.00 94 1008.0
20260506105418 75 220 0.0 0.0 0.00 0.00 0.00 94 1008.1
20260506104916 75 220 0.0 0.9 0.00 0.00 0.00 94 1008.0
20260506104414 75 209 0.0 0.0 0.00 0.00 0.00 94 1008.0
20260506103912 75 216 0.0 0.0 0.00 0.00 0.00 94 1007.7
20260506103409 75 213 0.9 0.9 0.00 0.00 0.00 94 1007.8
20260506102905 75 197 0.0 0.0 0.00 0.00 0.00 94 1008.0
20260506102404 75 194 0.0 0.0 0.00 0.00 0.00 94 1007.6
20260506101901 75 206 0.9 1.7 0.00 0.00 0.00 94 1007.4
20260506101356 75 173 0.0 0.0 0.00 0.00 0.00 94 1007.4
20260506100854 75 150 1.7 2.6 0.00 0.00 0.00 94 1007.3
20260506100353 75 162 0.0 0.0 0.00 0.00 0.00 94 1007.4
20260506095850 75 212 1.7 1.7 0.00 0.00 0.00 94 1007.3
20260506095348 75 176 1.7 2.6 0.00 0.00 0.00 94 1007.2
20260506094844 75 192 0.9 1.7 0.00 0.00 0.00 94 1007.2
20260506094343 75 184 0.9 1.7 0.00 0.00 0.00 94 1007.1
20260506093841 75 193 0.9 0.9 0.00 0.00 0.00 94 1006.9
20260506093338 75 176 0.9 1.7 0.00 0.00 0.00 94 1007.0
20260506092835 75 162 0.9 0.9 0.00 0.00 0.00 94 1007.1
20260506092333 75 106 0.9 2.6 0.00 0.00 0.00 94 1007.2
20260506091830 75 198 0.0 0.9 0.00 0.00 0.00 94 1007.3
20260506091328 75 202 0.9 1.7 0.00 0.00 0.00 94 1007.0
20260506090825 76 192 0.9 0.9 0.00 0.00 0.00 94 1007.0
20260506090322 76 173 0.9 0.9 0.00 0.00 0.00 94 1006.9
20260506085819 76 226 0.9 0.9 0.00 0.00 0.00 94 1007.1
20260506085315 76 166 0.0 0.9 0.00 0.00 0.00 94 1007.0
20260506084812 76 185 1.7 1.7 0.00 0.00 0.00 94 1006.9
20260506084308 75 197 1.7 1.7 0.00 0.00 0.00 94 1006.9
20260506083805 75 131 0.9 0.9 0.00 0.00 0.00 94 1007.0
20260506083303 75 88 1.7 1.7 0.00 0.00 0.00 94 1006.8
20260506082800 75 158 1.7 1.7 0.00 0.00 0.00 94 1006.8
20260506082256 75 169 1.7 1.7 0.00 0.00 0.00 94 1006.9
20260506081753 75 169 2.6 4.3 0.00 0.00 0.00 94 1006.9
20260506081251 75 194 0.0 0.0 0.00 0.00 0.00 94 1007.0
20260506080749 75 205 0.9 1.7 0.00 0.00 0.00 94 1007.0
20260506080244 75 146 0.9 0.9 0.00 0.00 0.00 95 1007.1
20260506073229 75 215 2.6 2.6 0.00 0.00 0.00 95 1007.3
20260506072725 75 170 1.7 1.7 0.00 0.00 0.00 95 1007.3
20260506072223 75 128 1.7 1.7 0.00 0.00 0.00 95 1007.4
20260506071720 75 141 2.6 4.3 0.00 0.00 0.00 95 1007.2
20260506071218 75 146 2.6 5.2 0.00 0.00 0.00 95 1007.2
20260506070715 75 128 1.7 1.7 0.00 0.00 0.00 95 1007.6
20260506070212 75 140 2.6 4.3 0.00 0.00 0.00 95 1007.5
20260506062149 75 190 2.6 4.3 0.00 0.00 0.00 95 1007.7
20260506061645 75 130 6.1 7.8 0.00 0.00 0.00 95 1007.8
20260506061142 75 124 2.6 2.6 0.00 0.00 0.00 95 1007.8
20260506060641 75 173 1.7 1.7 0.00 0.00 0.00 95 1007.7
20260506060138 75 148 2.6 2.6 0.00 0.00 0.00 94 1007.8
20260506051109 75 124 5.2 7.0 0.00 0.00 0.00 94 1007.7
20260506050608 75 182 2.6 2.6 0.00 0.00 0.00 94 1007.8
20260506050104 75 109 4.3 7.0 0.00 0.00 0.00 94 1007.8
20260506045058 76 110 1.7 2.6 0.00 0.00 0.00 94 1007.6
20260506044556 76 155 0.9 1.7 0.00 0.00 0.00 93 1008.0
20260506044052 76 134 0.9 1.7 0.00 0.00 0.00 93 1007.6
20260506043549 76 112 3.5 7.0 0.00 0.00 0.00 93 1007.5
20260506043048 76 125 3.5 6.1 0.00 0.00 0.00 93 1007.8
20260506042547 76 84 1.7 4.3 0.00 0.00 0.00 93 1007.6
20260506042044 76 141 7.0 8.7 0.00 0.00 0.00 93 1007.6
20260506041543 76 149 4.3 7.0 0.00 0.00 0.00 93 1007.6
20260506041039 76 97 6.1 7.8 0.00 0.00 0.00 93 1007.4
20260506040537 76 145 1.7 2.6 0.00 0.00 0.00 93 1007.1
20260506040032 76 167 1.7 1.7 0.00 0.00 0.00 93 1007.1
20260506035530 76 155 3.5 7.0 0.00 0.00 0.00 93 1007.1
20260506035026 77 153 4.3 6.1 0.00 0.00 0.00 93 1006.8
20260506034524 77 122 4.3 6.1 0.00 0.00 0.00 93 1006.8
20260506034021 77 179 1.7 2.6 0.00 0.00 0.00 93 1006.8
20260506033518 77 171 2.6 2.6 0.00 0.00 0.00 92 1006.8
20260506033015 77 154 3.5 5.2 0.00 0.00 0.00 92 1006.6
20260506032513 77 135 6.1 9.6 0.00 0.00 0.00 92 1006.5
20260506032009 77 176 2.6 4.3 0.00 0.00 0.00 92 1006.5
20260506031507 77 111 4.3 7.0 0.00 0.00 0.00 92 1006.2
20260506031003 77 183 2.6 4.3 0.00 0.00 0.00 92 1006.4
20260506030501 77 83 3.5 5.2 0.00 0.00 0.00 92 1006.3
20260506025958 77 164 3.5 4.3 0.00 0.00 0.00 91 1006.3
20260506025455 77 143 4.3 7.0 0.00 0.00 0.00 91 1006.4
20260506024951 78 139 2.6 2.6 0.00 0.00 0.00 91 1006.4
20260506024448 78 154 3.5 6.1 0.00 0.00 0.00 91 1006.3
20260506023944 78 111 4.3 6.1 0.00 0.00 0.00 91 1006.3
20260506023441 78 133 2.6 2.6 0.00 0.00 0.00 91 1006.2
20260506022938 78 92 2.6 2.6 0.00 0.00 0.00 91 1006.0
20260506022436 78 150 2.6 4.3 0.00 0.00 0.00 91 1006.0
20260506021934 78 141 3.5 5.2 0.00 0.00 0.00 90 1006.2
20260506021430 78 133 1.7 1.7 0.00 0.00 0.00 90 1006.0
20260506020927 78 134 2.6 2.6 0.00 0.00 0.00 90 1006.0
20260506020425 78 103 2.6 4.3 0.00 0.00 0.00 90 1006.1
20260506015922 78 132 2.6 4.3 0.00 0.00 0.00 90 1005.9
20260506015420 78 76 3.5 4.3 0.00 0.00 0.00 90 1005.9
20260506014916 78 179 0.9 0.9 0.00 0.00 0.00 90 1006.0
20260506014413 78 134 1.7 1.7 0.00 0.00 0.00 90 1006.0
20260506013910 78 177 1.7 1.7 0.00 0.00 0.00 89 1005.8
20260506013408 78 168 0.9 0.9 0.00 0.00 0.00 89 1005.9
20260506012904 78 163 2.6 5.2 0.00 0.00 0.00 89 1005.5
20260506012401 78 172 3.5 5.2 0.00 0.00 0.00 90 1005.4
20260506011857 78 157 0.9 1.7 0.00 0.00 0.00 89 1005.3
20260506011355 78 113 0.9 1.7 0.00 0.00 0.00 89 1005.3
20260506010852 79 162 1.7 1.7 0.00 0.00 0.00 89 1005.4
20260506010350 79 186 0.9 0.9 0.00 0.00 0.00 89 1005.1
20260506005846 79 123 2.6 6.1 0.00 0.00 0.00 88 1005.1
20260506005343 79 120 2.6 4.3 0.00 0.00 0.00 88 1004.9
20260506004839 79 147 2.6 4.3 0.00 0.00 0.00 88 1004.7
20260506004337 80 124 2.6 4.3 0.00 0.00 0.00 87 1004.9
20260506003833 80 152 1.7 1.7 0.00 0.00 0.00 87 1004.7
20260506003329 80 123 5.2 7.0 0.00 0.00 0.00 86 1004.6
20260506002826 80 205 0.9 1.7 0.00 0.00 0.00 86 1004.9
20260506002322 80 167 7.8 9.6 0.00 0.00 0.00 86 1004.8
20260506001818 81 160 1.7 1.7 0.00 0.00 0.00 86 1004.7
20260506001315 81 177 2.6 4.3 0.00 0.00 0.00 86 1004.8
20260506000812 81 84 2.6 4.3 0.00 0.00 0.00 86 1004.9
20260506000310 81 130 2.6 4.3 0.00 0.00 0.00 85 1004.7
20260505235806 81 131 1.7 2.6 0.00 0.00 0.00 85 1005.0
20260505235305 81 140 3.5 7.0 0.00 0.00 0.00 85 1004.8
20260505234801 81 89 2.6 4.3 0.00 0.00 0.00 85 1004.9
20260505234259 82 110 4.3 6.1 0.00 0.00 0.00 84 1004.8
20260505233755 82 152 1.7 2.6 0.00 0.00 0.00 84 1004.7
20260505233253 82 169 1.7 2.6 0.00 0.00 0.00 84 1004.7
20260505232750 82 212 0.9 0.9 0.00 0.00 0.00 83 1004.8
20260505232248 82 148 7.0 8.7 0.00 0.00 0.00 83 1004.6
20260505231743 82 73 3.5 4.3 0.00 0.00 0.00 83 1004.6
20260505231243 82 177 2.6 2.6 0.00 0.00 0.00 83 1004.6
20260505230741 82 146 2.6 4.3 0.00 0.00 0.00 83 1004.6
20260505230237 82 165 1.7 1.7 0.00 0.00 0.00 83 1004.8
20260505225734 82 168 2.6 2.6 0.00 0.00 0.00 83 1004.7
20260505225231 83 124 5.2 7.8 0.00 0.00 0.00 82 1004.5
20260505224726 83 110 2.6 2.6 0.00 0.00 0.00 82 1004.5
20260505224224 83 171 2.6 2.6 0.00 0.00 0.00 82 1004.6
20260505223721 83 176 0.9 1.7 0.00 0.00 0.00 82 1004.5
20260505223217 83 145 3.5 5.2 0.00 0.00 0.00 83 1004.7
20260505222713 83 136 5.2 7.0 0.00 0.00 0.00 82 1004.5
20260505222210 83 98 2.6 4.3 0.00 0.00 0.00 82 1004.9
20260505221707 84 153 1.7 1.7 0.00 0.00 0.00 81 1004.6
20260505221203 84 134 2.6 4.3 0.00 0.00 0.00 81 1004.9
20260505220701 85 92 3.5 5.2 0.00 0.00 0.00 79 1004.6
20260505220158 85 159 1.7 2.6 0.00 0.00 0.00 77 1004.5
20260505215656 86 203 3.5 5.2 0.00 0.00 0.00 75 1004.5
20260505215154 86 134 8.7 12.2 0.00 0.00 0.00 74 1004.7
20260505214651 87 193 2.6 2.6 0.00 0.00 0.00 75 1004.6
20260505214148 86 177 1.7 1.7 0.00 0.00 0.00 76 1004.6
20260505213646 86 193 2.6 4.3 0.00 0.00 0.00 76 1004.8
20260505213143 86 195 2.6 2.6 0.00 0.00 0.00 77 1004.8
20260505212638 85 194 2.6 2.6 0.00 0.00 0.00 77 1004.8
20260505212136 86 180 2.6 5.2 0.00 0.00 0.00 77 1004.9
20260505211633 86 182 1.7 1.7 0.00 0.00 0.00 77 1005.2
20260505211130 86 178 2.6 4.3 0.00 0.00 0.00 76 1005.1
20260505210627 86 169 4.3 6.1 0.00 0.00 0.00 78 1005.2
20260505210123 86 118 0.9 1.7 0.00 0.00 0.00 76 1005.2
20260505205621 85 185 2.6 4.3 0.00 0.00 0.00 79 1005.4
20260505205119 85 233 0.9 0.9 0.00 0.00 0.00 78 1005.5
20260505204616 86 196 4.3 5.2 0.00 0.00 0.00 78 1005.8
20260505204113 87 64 2.6 2.6 0.00 0.00 0.00 76 1005.5
20260505203609 86 196 1.7 2.6 0.00 0.00 0.00 77 1005.5
20260505203107 85 210 1.7 2.6 0.00 0.00 0.00 79 1005.7
20260505202603 87 199 1.7 1.7 0.00 0.00 0.00 76 1005.9
20260505202059 86 178 1.7 1.7 0.00 0.00 0.00 78 1005.9
20260505201556 86 180 1.7 1.7 0.00 0.00 0.00 78 1005.9
20260505201054 85 182 3.5 5.2 0.00 0.00 0.00 78 1006.0
20260505200551 86 219 4.3 7.0 0.00 0.00 0.00 77 1005.9
20260505200048 85 214 7.0 7.8 0.00 0.00 0.00 77 1006.1
20260505195544 86 202 3.5 4.3 0.00 0.00 0.00 76 1006.2
20260505195042 86 169 2.6 4.3 0.00 0.00 0.00 76 1006.2
20260505194539 86 142 2.6 2.6 0.00 0.00 0.00 78 1006.4
20260505194034 86 179 2.6 2.6 0.00 0.00 0.00 77 1006.3
20260505193531 87 187 1.7 1.7 0.00 0.00 0.00 77 1006.0
20260505193029 84 186 2.6 4.3 0.00 0.00 0.00 79 1006.3
20260505192527 85 208 8.7 8.7 0.00 0.00 0.00 78 1006.4
20260505192024 84 231 4.3 6.1 0.00 0.00 0.00 80 1006.6
20260505191522 84 49 1.7 2.6 0.00 0.00 0.00 80 1006.4
20260505191020 84 205 5.2 7.0 0.00 0.00 0.00 80 1006.6
20260505190514 85 195 4.3 5.2 0.00 0.00 0.00 79 1006.6
20260505190011 83 170 2.6 2.6 0.00 0.00 0.00 82 1006.9
20260505185508 83 225 8.7 9.6 0.00 0.00 0.00 82 1007.0
20260505185004 82 213 7.8 8.7 0.00 0.00 0.00 82 1006.8
20260505184501 82 250 2.6 4.3 0.00 0.00 0.00 82 1006.9
20260505183957 82 235 1.7 2.6 0.00 0.00 0.00 82 1007.3
20260505183455 82 193 4.3 5.2 0.00 0.00 0.00 82 1007.2
20260505182951 83 193 4.3 5.2 0.00 0.00 0.00 80 1007.3
20260505182448 82 224 7.8 12.2 0.00 0.00 0.00 81 1007.1
20260505181944 82 197 1.7 2.6 0.00 0.00 0.00 82 1007.0
20260505181442 81 222 2.6 4.3 0.00 0.00 0.00 83 1007.4
20260505180939 81 197 2.6 2.6 0.00 0.00 0.00 83 1007.3
20260505180435 81 211 4.3 6.1 0.00 0.00 0.00 83 1007.4
20260505175932 81 211 7.0 8.7 0.00 0.00 0.00 83 1007.2
20260505175428 82 193 0.9 1.7 0.00 0.00 0.00 82 1007.2
20260505174924 81 254 4.3 7.0 0.00 0.00 0.00 83 1007.2
20260505174422 81 231 2.6 2.6 0.00 0.00 0.00 84 1007.4
20260505173918 80 203 5.2 7.0 0.00 0.00 0.00 85 1007.4
20260505173414 80 214 2.6 2.6 0.00 0.00 0.00 86 1007.5
20260505172911 80 202 6.1 8.7 0.00 0.00 0.00 84 1007.5
20260505172409 80 224 2.6 5.2 0.00 0.00 0.00 85 1007.4
20260505171909 80 179 5.2 7.8 0.00 0.00 0.00 85 1007.4
20260505171406 80 214 5.2 6.1 0.00 0.00 0.00 85 1007.6
20260505170902 79 220 4.3 6.1 0.00 0.00 0.00 86 1007.6
20260505170359 80 214 7.8 8.7 0.00 0.00 0.00 85 1007.6
20260505165855 80 191 2.6 2.6 0.00 0.00 0.00 85 1007.9
20260505165350 80 219 3.5 4.3 0.00 0.00 0.00 85 1007.6
20260505164846 79 189 2.6 2.6 0.00 0.00 0.00 87 1007.8
20260505164343 80 220 7.8 9.6 0.00 0.00 0.00 85 1007.6
20260505163841 80 215 2.6 4.3 0.00 0.00 0.00 86 1007.7
20260505163340 80 188 5.2 8.7 0.00 0.00 0.00 86 1007.8
20260505162838 80 228 2.6 4.3 0.00 0.00 0.00 86 1007.6
20260505162334 80 239 6.1 7.8 0.00 0.00 0.00 85 1007.7
20260505161831 80 99 4.3 5.2 0.00 0.00 0.00 86 1007.6
20260505161328 79 199 1.7 2.6 0.00 0.00 0.00 88 1007.8
20260505160825 78 218 2.6 4.3 0.00 0.00 0.00 89 1007.7
20260505160323 78 198 4.3 6.1 0.00 0.00 0.00 88 1007.8
20260505153302 77 211 7.0 9.6 0.00 0.00 0.00 90 1007.6
20260505152759 76 231 2.6 2.6 0.00 0.00 0.00 91 1007.7
20260505152255 76 148 4.3 6.1 0.00 0.00 0.00 91 1007.7
20260505151750 76 188 2.6 4.3 0.00 0.00 0.00 92 1007.9
20260505151248 75 211 2.6 2.6 0.00 0.00 0.00 92 1007.8
20260505150744 75 217 6.1 8.7 0.00 0.00 0.00 92 1008.0
20260505150241 75 189 4.3 5.2 0.00 0.00 0.00 92 1007.9